Tracking 20037 objects as of 20-Nov-2019
Live streaming from Space Station
objects crossing your sky now

ESA/GOES

Track ESA/GOES now!
ESA/GOES is classified as:


NORAD ID: 9931
Int'l Code: 1977-029A
Perigee: 2,655.6 km
Apogee: 38,512.5 km
Inclination: 26.5 °
Period: 734.0 minutes
Semi major axis: 26955 km
RCS: 4.0849 m2 (large)
Launch date: April 20, 1977
Source: European Space Agency (ESA)
Launch site: AIR FORCE EASTERN TEST RANGE (AFETR)
aabbcc
Your satellite tracking list
Your tracking list is empty




NASA's NSSDC Master Catalog

Two Line Element Set (TLE):
1  9931U 77029A   19323.14336415  .00000294  00000-0  00000+0 0  9996
2  9931  26.4955 123.2391 6651225 300.4804  10.3989  1.96174621304747
Source of the keplerian elements: AFSPC